| time (UTC) | temp F | wind direction | speed MPH | gust MPH | rain 1hr in | rain 24hr in | rain mn in | humidity % | barometer mb |
| 20260831041606 | 78 | 143 | 0.0 | 0.0 | 0.01 | 0.40 | 0.00 | 36 | 1014.2 |
| 20260831040048 | 78 | 204 | 0.0 | 0.0 | 0.01 | 0.40 | 0.40 | 36 | 1014.0 |
| 20260831034551 | 78 | 203 | 0.0 | 0.0 | 0.02 | 0.40 | 0.40 | 36 | 1014.0 |
| 20260831033048 | 78 | 101 | 0.0 | 0.0 | 0.01 | 0.39 | 0.39 | 36 | 1014.4 |
| 20260831031546 | 78 | 231 | 0.0 | 0.0 | 0.01 | 0.39 | 0.39 | 36 | 1014.6 |
| 20260831030045 | 79 | 186 | 0.0 | 0.0 | 0.01 | 0.39 | 0.39 | 41 | 1014.8 |
| 20260831024545 | 79 | 179 | 0.0 | 0.0 | 0.00 | 0.38 | 0.38 | 66 | 1014.7 |
| 20260831023042 | 79 | 207 | 0.0 | 0.0 | 0.00 | 0.38 | 0.38 | 67 | 1014.4 |
| 20260831021547 | 79 | 56 | 0.0 | 0.0 | 0.00 | 0.38 | 0.38 | 69 | 1014.4 |
| 20260831020041 | 79 | 56 | 0.0 | 0.0 | 0.00 | 0.38 | 0.38 | 69 | 1014.4 |
| 20260831014540 | 79 | 56 | 0.0 | 0.0 | 0.00 | 0.38 | 0.38 | 72 | 1014.4 |
| 20260831013042 | 79 | 232 | 0.0 | 0.0 | 0.00 | 0.38 | 0.38 | 72 | 1014.1 |
| 20260831011544 | 79 | 232 | 0.0 | 0.0 | 0.00 | 0.38 | 0.38 | 72 | 1013.9 |
| 20260831010049 | 78 | 232 | 0.0 | 0.0 | 0.00 | 0.38 | 0.38 | 72 | 1013.5 |
| 20260831004535 | 78 | 232 | 0.0 | 0.0 | 0.00 | 0.38 | 0.38 | 72 | 1013.2 |
| 20260831003035 | 78 | 232 | 0.0 | 0.0 | 0.00 | 0.38 | 0.38 | 70 | 1012.8 |
| 20260831001539 | 78 | 176 | 0.0 | 0.0 | 0.00 | 0.38 | 0.38 | 70 | 1012.4 |
| 20260831000032 | 79 | 231 | 0.0 | 0.0 | 0.00 | 0.38 | 0.38 | 72 | 1012.4 |
| 20260830234532 | 79 | 182 | 0.0 | 0.0 | 0.00 | 0.38 | 0.38 | 75 | 1012.4 |
| 20260830233031 | 79 | 182 | 0.0 | 0.0 | 0.00 | 0.38 | 0.38 | 78 | 1012.6 |
| 20260830231531 | 79 | 174 | 0.0 | 0.0 | 0.00 | 0.38 | 0.38 | 79 | 1012.8 |
| 20260830230033 | 79 | 204 | 0.0 | 0.0 | 0.00 | 0.38 | 0.38 | 80 | 1012.7 |
| 20260830224530 | 79 | 203 | 0.0 | 0.0 | 0.00 | 0.38 | 0.38 | 80 | 1012.9 |
| 20260830223028 | 80 | 108 | 0.0 | 0.0 | 0.00 | 0.38 | 0.38 | 79 | 1012.7 |
| 20260830221528 | 80 | 150 | 0.0 | 0.0 | 0.00 | 0.38 | 0.38 | 79 | 1012.3 |
| 20260830220034 | 80 | 136 | 0.0 | 0.0 | 0.00 | 0.38 | 0.38 | 79 | 1012.2 |
| 20260830214528 | 80 | 182 | 0.0 | 0.0 | 0.00 | 0.38 | 0.38 | 80 | 1011.9 |
| 20260830213026 | 80 | 143 | 0.0 | 0.0 | 0.00 | 0.38 | 0.38 | 80 | 1011.9 |
| 20260830211525 | 81 | 98 | 0.0 | 0.0 | 0.00 | 0.38 | 0.38 | 79 | 1011.8 |
| 20260830210025 | 80 | 227 | 0.0 | 0.0 | 0.00 | 0.38 | 0.38 | 79 | 1011.6 |
| 20260830204533 | 80 | 143 | 0.0 | 0.0 | 0.00 | 0.38 | 0.38 | 78 | 1011.4 |
| 20260830203024 | 80 | 65 | 0.0 | 0.0 | 0.00 | 0.38 | 0.38 | 74 | 1011.5 |
| 20260830201524 | 80 | 175 | 0.0 | 0.0 | 0.00 | 0.38 | 0.38 | 73 | 1011.7 |
| 20260830200023 | 80 | 162 | 0.0 | 0.0 | 0.00 | 0.38 | 0.38 | 72 | 1011.7 |
| 20260830194523 | 80 | 135 | 0.0 | 0.0 | 0.00 | 0.38 | 0.38 | 63 | 1011.7 |
| 20260830193023 | 80 | 82 | 0.0 | 0.0 | 0.00 | 0.38 | 0.38 | 39 | 1011.5 |
| 20260830191522 | 79 | 112 | 0.0 | 0.0 | 0.00 | 0.38 | 0.38 | 35 | 1011.3 |
| 20260830190022 | 78 | 94 | 0.0 | 0.0 | 0.00 | 0.38 | 0.38 | 36 | 1010.7 |
| 20260830184521 | 78 | 53 | 0.0 | 0.0 | 0.00 | 0.38 | 0.38 | 35 | 1010.4 |
| 20260830183019 | 77 | 242 | 0.0 | 0.0 | 0.00 | 0.38 | 0.38 | 37 | 1010.3 |
| 20260830181517 | 77 | 251 | 0.0 | 0.0 | 0.00 | 0.38 | 0.38 | 36 | 1010.7 |
| 20260830180014 | 78 | 248 | 0.0 | 2.0 | 0.00 | 0.38 | 0.38 | 36 | 1011.1 |
| 20260830174516 | 78 | 240 | 0.0 | 0.0 | 0.06 | 0.38 | 0.38 | 36 | 1011.5 |
| 20260830173008 | 79 | 247 | 0.0 | 0.0 | 0.15 | 0.38 | 0.38 | 36 | 1011.7 |
| 20260830171508 | 79 | 231 | 0.0 | 0.0 | 0.15 | 0.38 | 0.38 | 35 | 1012.3 |
| 20260830170008 | 79 | 115 | 0.0 | 0.0 | 0.15 | 0.38 | 0.38 | 35 | 1012.4 |
| 20260830164514 | 81 | 115 | 0.0 | 0.0 | 0.09 | 0.32 | 0.32 | 34 | 1013.0 |
| 20260830163005 | 81 | 26 | 0.0 | 0.0 | 0.00 | 0.23 | 0.23 | 34 | 1012.8 |
| 20260830161504 | 81 | 328 | 0.0 | 0.0 | 0.01 | 0.23 | 0.23 | 35 | 1012.7 |
| 20260830160003 | 81 | 22 | 0.0 | 0.0 | 0.01 | 0.23 | 0.23 | 35 | 1012.7 |
| 20260830154506 | 81 | 18 | 0.0 | 0.0 | 0.07 | 0.23 | 0.23 | 35 | 1013.0 |
| 20260830153008 | 81 | 8 | 0.0 | 0.0 | 0.07 | 0.23 | 0.23 | 35 | 1013.3 |
| 20260830151506 | 81 | 6 | 0.0 | 0.0 | 0.07 | 0.22 | 0.22 | 34 | 1013.9 |
| 20260830150003 | 81 | 114 | 0.0 | 0.0 | 0.07 | 0.22 | 0.22 | 34 | 1013.6 |
| 20260830144501 | 81 | 56 | 0.0 | 0.0 | 0.03 | 0.16 | 0.16 | 34 | 1013.5 |
| 20260830143101 | 81 | 56 | 0.0 | 0.0 | 0.03 | 0.16 | 0.16 | 35 | 1013.3 |
| 20260830141559 | 81 | 328 | 0.0 | 0.0 | 0.02 | 0.15 | 0.15 | 36 | 1013.3 |
| 20260830140115 | 81 | 54 | 0.0 | 0.0 | 0.02 | 0.15 | 0.15 | 36 | 1013.7 |
| 20260830134559 | 81 | 285 | 0.0 | 0.0 | 0.01 | 0.14 | 0.14 | 52 | 1013.6 |
| 20260830133058 | 81 | 245 | 0.0 | 0.0 | 0.00 | 0.13 | 0.13 | 48 | 1013.4 |
| 20260830131607 | 80 | 302 | 0.0 | 0.0 | 0.00 | 0.13 | 0.13 | 43 | 1013.6 |
| 20260830130059 | 80 | 309 | 0.0 | 0.0 | 0.00 | 0.13 | 0.13 | 38 | 1013.5 |
| 20260830124557 | 80 | 288 | 0.0 | 0.0 | 0.03 | 0.13 | 0.13 | 37 | 1013.3 |
| 20260830123058 | 79 | 342 | 0.0 | 0.0 | 0.04 | 0.13 | 0.13 | 37 | 1013.3 |
| 20260830121554 | 79 | 63 | 0.0 | 0.0 | 0.06 | 0.13 | 0.13 | 39 | 1012.9 |
| 20260830120056 | 80 | 12 | 0.0 | 0.0 | 0.06 | 0.13 | 0.13 | 38 | 1013.2 |
| 20260830114551 | 80 | 110 | 0.0 | 0.0 | 0.02 | 0.09 | 0.09 | 38 | 1012.9 |
| 20260830113053 | 80 | 340 | 0.0 | 0.0 | 0.02 | 0.09 | 0.09 | 38 | 1012.7 |
| 20260830111549 | 80 | 340 | 0.0 | 0.0 | 0.07 | 0.07 | 0.07 | 39 | 1012.6 |
| 20260830110049 | 80 | 18 | 0.0 | 0.0 | 0.07 | 0.07 | 0.07 | 40 | 1012.5 |
| 20260830104556 | 80 | 73 | 0.0 | 0.0 | 0.07 | 0.07 | 0.07 | 45 | 1012.5 |
| 20260830103045 | 80 | 60 | 0.0 | 1.0 | 0.07 | 0.07 | 0.07 | 55 | 1012.5 |
| 20260830101553 | 82 | 50 | 0.0 | 0.0 | 0.00 | 0.00 | 0.00 | 72 | 1012.2 |
| 20260830100040 | 81 | 46 | 0.0 | 0.0 | 0.00 | 0.00 | 0.00 | 70 | 1012.2 |
| 20260830094538 | 82 | 46 | 0.0 | 0.0 | 0.00 | 0.00 | 0.00 | 70 | 1012.0 |
| 20260830093038 | 82 | 31 | 0.0 | 0.0 | 0.00 | 0.00 | 0.00 | 70 | 1011.9 |
| 20260830091538 | 82 | 58 | 0.0 | 0.0 | 0.00 | 0.00 | 0.00 | 72 | 1011.8 |
| 20260830090038 | 81 | 8 | 0.0 | 0.0 | 0.00 | 0.00 | 0.00 | 69 | 1011.9 |
| 20260830084539 | 81 | 36 | 0.0 | 0.0 | 0.00 | 0.00 | 0.00 | 64 | 1011.9 |
| 20260830083043 | 81 | 231 | 0.0 | 0.0 | 0.00 | 0.00 | 0.00 | 64 | 1011.8 |
| 20260830081537 | 80 | 228 | 0.0 | 0.0 | 0.00 | 0.00 | 0.00 | 72 | 1011.8 |
| 20260830080032 | 80 | 243 | 0.0 | 0.0 | 0.00 | 0.00 | 0.00 | 69 | 1012.1 |
| 20260830074535 | 80 | 224 | 0.0 | 0.0 | 0.00 | 0.00 | 0.00 | 69 | 1012.3 |
| 20260830073029 | 80 | 219 | 0.0 | 0.0 | 0.00 | 0.00 | 0.00 | 66 | 1012.4 |
| 20260830071550 | 80 | 169 | 0.0 | 0.0 | 0.00 | 0.00 | 0.00 | 68 | 1012.5 |
| 20260830070027 | 80 | 149 | 0.0 | 0.0 | 0.00 | 0.00 | 0.00 | 68 | 1012.3 |
| 20260830064526 | 80 | 125 | 0.0 | 0.0 | 0.00 | 0.00 | 0.00 | 69 | 1012.5 |
| 20260830063023 | 80 | 233 | 0.0 | 0.0 | 0.00 | 0.00 | 0.00 | 69 | 1012.8 |
| 20260830061521 | 81 | 178 | 0.0 | 0.0 | 0.00 | 0.00 | 0.00 | 72 | 1012.8 |
| 20260830060022 | 81 | 210 | 0.0 | 0.0 | 0.00 | 0.00 | 0.00 | 71 | 1012.8 |
| 20260830054523 | 81 | 210 | 0.0 | 0.0 | 0.00 | 0.00 | 0.00 | 73 | 1013.1 |
| 20260830053011 | 82 | 162 | 0.0 | 0.0 | 0.00 | 0.00 | 0.00 | 77 | 1013.4 |
| 20260830051512 | 82 | 101 | 0.0 | 0.0 | 0.00 | 0.00 | 0.00 | 79 | 1013.6 |
| 20260830050003 | 83 | 37 | 0.0 | 0.0 | 0.00 | 0.00 | 0.00 | 80 | 1013.8 |
| 20260830044559 | 83 | 64 | 0.0 | 0.0 | 0.00 | 0.00 | 0.00 | 80 | 1013.9 |
| 20260830043102 | 83 | 51 | 0.0 | 0.0 | 0.00 | 0.00 | 0.00 | 80 | 1014.1 |